Location: Newark
(51.3656°N, 14.2631°E)
Time: 18:15:59
(UTC+00:00)

N. Korean satellite - Visible Passes

Search period start: 29 January 2020 00:00
Search period end: 08 February 2020 00:00
Orbit: 454 x 507 km, 97.2° (Epoch: 28 January)

Date Brightness Start Highest point End Pass type
(mag) Time Alt. Az. Time Alt. Az. Time Alt. Az.
29 Jan 9.5 04:01:23 10° NE 04:03:57 18° E 04:06:31 10° SE visible
29 Jan 6.9 05:34:07 10° N 05:37:32 42° WNW 05:40:58 10° SW visible
30 Jan 6.5 05:08:28 10° NNE 05:12:05 82° WNW 05:15:44 10° SSW visible
31 Jan 7.5 04:43:00 10° NNE 04:46:32 50° E 04:50:07 10° S visible
31 Jan 9.7 16:58:02 10° SW 17:00:21 17° W 17:02:42 10° NW visible
01 Feb 8.8 04:17:47 10° NE 04:20:56 27° E 04:24:05 10° SSE visible
01 Feb 7.5 05:51:09 10° N 05:54:18 28° WNW 05:57:29 10° SW visible
01 Feb 8.7 16:31:33 10° SSW 16:34:39 31° W 16:37:48 10° NNW visible
02 Feb 9.8 03:53:02 10° NE 03:55:14 15° E 03:57:25 10° SE visible
02 Feb 6.7 05:25:22 10° N 05:28:54 52° WNW 05:32:29 10° SSW visible
03 Feb 6.7 04:59:46 10° NNE 05:03:25 80° ESE 05:07:06 10° S visible
03 Feb 10.1 17:16:12 10° WSW 17:17:21 11° W 17:18:32 10° WNW visible
04 Feb 8.0 04:34:23 10° NNE 04:37:52 41° E 04:41:22 10° S visible
04 Feb 9.6 16:48:54 10° SW 16:51:35 21° W 16:54:18 10° NW visible
05 Feb 9.2 04:09:16 10° NE 04:12:12 22° E 04:15:09 10° SSE visible
05 Feb 7.2 05:42:20 10° N 05:45:41 35° WNW 05:49:03 10° SW visible
06 Feb 10.0 03:44:47 10° ENE 03:46:28 13° E 03:48:08 10° ESE visible
06 Feb 6.5 05:16:37 10° N 05:20:15 66° WNW 05:23:55 10° SSW visible
07 Feb 7.1 04:51:05 10° NNE 04:54:44 64° E 04:58:25 10° S visible
07 Feb 9.9 17:06:38 10° WSW 17:08:33 14° W 17:10:30 10° NW visible
